#timestamp,LO_Frequency,Hit,StdDev 
1593518415.0,286047002.2,N
1593518415.9,286047002.2,N
1593518435.8,286047002.0,N
1593518455.6,286047004.9,Y
1593518475.5,286047002.5,P
1593518495.3,286047000.3,N
1593518515.1,286047000.3,N
1593518535.9,286047004.1,Y
1593518555.7,286046998.4,P
1593518575.5,286046998.6,N
1593518595.4,286046999.3,N
1593518615.2,286046998.7,N
1593518635.1,286046998.6,N
1593518636.0,286046998.6,N
1593518655.8,286046999.6,N
1593518675.7,286046997.3,Y
1593518695.5,286047000.4,P
1593518715.3,286047002.0,P
1593518735.2,286046998.5,N
1593518755.0,286046999.7,N
1593518755.9,286046999.7,N
1593518775.7,286046998.9,N
1593518795.6,286046997.2,N
1593518815.4,286046999.2,N
1593518835.3,286046996.5,N
1593518855.1,286046998.4,N
1593518856.0,286046998.4,N
1593518875.8,286046999.2,N
1593518895.7,286046999.0,N
1593518915.5,286046997.4,N
1593518935.4,286046998.6,N
1593518955.2,286046999.0,N
1593518975.0,286046999.2,N
1593518975.9,286046999.2,N
1593518995.8,286046999.2,N
1593519015.6,286046998.4,N
1593519035.4,286046999.6,N
1593519055.3,286047000.5,N
1593519075.1,286046998.3,N
1593519095.9,286047002.7,N
1593519115.7,286047004.3,Y
1593519135.5,286046996.8,P
1593519155.4,286047000.5,N
1593519175.2,286047000.9,N
1593519195.1,286047004.0,N
1593519196.0,286047004.0,N
1593519215.8,286047001.6,N
1593519235.6,286046999.9,N
1593519255.5,286046999.8,N
1593519275.3,286047002.4,N
1593519295.2,286047002.1,N
1593519315.9,286047000.8,N
1593519335.7,286046997.0,N
1593519355.6,286046999.7,N
1593519375.4,286047001.4,N
1593519395.2,286047000.1,N
1593519415.1,286047000.2,N
1593519416.0,286047000.2,N
1593519435.8,286047001.1,N
1593519455.7,286046999.7,N
1593519475.5,286047000.8,N
1593519495.3,286046998.4,N
1593519515.2,286047000.6,N
1593519535.0,286047001.9,N
1593519535.9,286047001.9,N
1593519555.8,286047001.8,N
1593519575.6,286046999.8,N
1593519595.4,286047002.6,N
1593519615.3,286047000.9,N
1593519635.1,286047001.9,N
1593519655.9,286047000.1,N
1593519675.7,286047002.9,N
1593519695.5,286047005.1,Y
1593519715.4,286047005.7,P
1593519735.2,286047003.6,N
1593519755.0,286047002.3,N
1593519756.0,286047002.3,N
1593519775.8,286047001.5,N
1593519795.6,286046999.7,N
1593519815.5,286047003.6,N
1593519835.3,286046999.8,N
1593519855.1,286047001.9,N
1593519875.9,286046999.9,N
1593519895.7,286047001.2,N
1593519915.6,286047000.8,N
1593519935.4,286047011.9,Y
1593519955.2,286046996.7,P
1593519975.1,286046994.0,N
1593519976.0,286046994.0,N
1593520025.8,286046995.2,E
1593520035.8,286046999.1,N
1593520055.6,286047004.4,P
1593520075.4,286047004.2,N
1593520095.3,286047002.9,N
1593520115.1,286047003.7,N
1593520135.8,286046999.8,N
1593520155.7,286047001.4,N
1593520175.5,286047001.5,N
1593520195.4,286047004.3,N
1593520215.2,286047006.0,Y
1593520235.0,286047002.6,P
1593520235.9,286047002.6,P
1593520255.8,286047004.4,P
1593520275.6,286047001.9,N
1593520295.5,286047001.8,N
1593520315.3,286047003.6,Y
1593520335.1,286047000.5,P
1593520355.9,286046998.9,N
1593520375.7,286046997.0,N
1593520395.6,286046997.0,N
1593520415.4,286046997.5,N
1593520435.2,286046997.3,N
1593520455.1,286046994.9,N
1593520456.0,286046994.9,N
1593520475.8,286046997.7,N
1593520495.6,286046996.9,N
1593520515.5,286046998.3,N
1593520535.3,286046998.3,N
1593520555.2,286046998.7,N
1593520575.9,286046998.3,N
1593520595.7,286046999.5,N
1593520615.6,286046996.6,N
1593520635.4,286046997.6,N
1593520655.3,286046996.8,N
1593520675.1,286046996.8,N
1593520676.0,286046996.8,N
1593520695.8,286046998.7,N
1593520715.7,286046996.6,N
1593520735.5,286046999.3,N
1593520755.3,286046999.4,N
1593520775.2,286046999.2,N
1593520795.0,286046999.0,N
1593520795.9,286046999.0,N
1593520815.8,286047000.8,N
1593520835.6,286047000.0,N
1593520855.4,286047001.7,N
1593520875.3,286047002.5,N
1593520895.1,286047002.4,N
1593520915.9,286047000.5,N
1593520935.7,286047002.2,N
1593520955.5,286047000.0,N
1593520975.4,286047003.0,N
1593520995.2,286047000.4,N
1593521015.0,286046997.7,N
1593521016.0,286046997.7,N
1593521035.8,286046997.3,N
1593521055.6,286046995.6,N
1593521075.5,286046998.8,N
1593521095.3,286046999.5,N
1593521115.2,286046999.3,N
1593521135.9,286046999.1,N
1593521155.7,286046998.3,N
1593521175.6,286047000.9,N
1593521195.4,286046997.4,N
1593521215.3,286046997.7,N
1593521235.1,286046997.7,N
1593521255.8,286046995.0,N
1593521275.7,286046995.9,N
1593521295.5,286046995.7,N
1593521315.4,286046995.9,N
1593521335.2,286046993.7,N
1593521355.0,286046994.1,N
1593521355.9,286046994.1,N
1593521375.8,286046990.7,Y
1593521395.6,286046994.8,P
1593521415.5,286046994.4,P
1593521435.3,286046993.9,P
1593521455.2,286046996.2,N
1593521475.9,286046994.3,Y
1593521495.7,286046999.6,P
1593521515.6,286046999.6,N
1593521535.4,286046999.5,N
1593521555.3,286046999.4,N
1593521575.1,286046998.1,N
1593521576.0,286046998.1,N
1593521595.8,286047001.7,N
1593521615.7,286047003.2,N
1593521635.5,286047002.6,N
1593521655.4,286047002.4,N
1593521675.2,286047001.5,N
1593521695.0,286047003.6,N
1593521695.9,286047003.6,N
1593521715.8,286047004.3,N
1593521735.6,286047004.3,N
1593521755.4,286047002.2,N
1593521775.3,286047005.0,N
1593521795.1,286047004.2,N
1593521815.9,286047002.7,N
1593521835.7,286047000.2,N
1593521855.5,286046999.7,N
1593521875.4,286047002.7,N
1593521895.2,286047001.9,N
1593521915.0,286047003.3,N
1593521916.0,286047003.3,N
1593521935.8,286047001.4,N
1593521955.6,286047003.5,N
1593521975.5,286047001.4,N
1593521995.3,286047003.9,N
